Volver al catálogo

STARLINK-4770

ActivoComunicacionesVLEO
NORAD 53849·PAYLOAD·🇺🇸 United States

Lanzado Sep 19, 2022 desde Cape Canaveral Space Force Station

Loading…

Próximos Pases (próximas 24 horas)

TLE

ActualizadoSource: CelesTrak SupGP

Época: Sep 14, 2026, 20:17 UTC

1 53849C 22114AH  26257.84562500 -.00030965  00000+0 -99578-3 0  2573
2 53849  53.1583 150.3271 0001439  88.6792  56.6585 15.31716495    10

Sigue STARLINK-4770 en tiempo real con AllMySat

Download on the App Store